Weather History for Wenatchee, WA

Change the Weather History Date:

Saturday, March 22, 2014

  Actual Average Record
Temperature  
Mean Temperature 32 °F 41 °F  
Max Temperature 47 °F 50 °F 71 °F (1978)
Min Temperature 17 °F 31 °F 17 °F (2014)
Degree Days  
Heating Degree Days 33 24  
Month to date heating degree days 599 602  
Since 1 July heating degree days 5930 5801  
Cooling Degree Days 0 0  
Month to date cooling degree days 0 0  
Year to date cooling degree days 0 0  
Moisture  
Dew Point 20 °F    
Average Humidity 43    
Maximum Humidity 64    
Minimum Humidity 23    
Precipitation  
Precipitation 0.00 in 0.06 in 0.44 in (2009)
Month to date precipitation 2.23 1.20  
Year to date precipitation 4.85 4.53  
Snow  
Snow 0.00 in 0.20 in - ()
Month to date snowfall 4.8 3.7  
Since 1 July snowfall 31.0 50.1  
Snow Depth 0.00 in    
Sea Level Pressure  
Sea Level Pressure 30.25 in    
Wind  
Wind Speed 5 mph (NW)    
Max Wind Speed 12 mph    
Max Gust Speed -    
Visibility 10 miles    
Events      
T = Trace of Precipitation, MM = Missing Value Source: NWS Daily Summary

Daily Weather History Graph

Daily Weather History Graph

Search for Another Location

Airport:

Trip Planner

Search our weather history database for the weather conditions in past years. The results will help you decide how hot, cold, wet, or windy it might be!

Date:

Astronomy

Mar. 22, 2014 Rise Set
Actual Time 6:59 AM PDT 7:16 PM PDT
Civil Twilight 6:28 AM PDT 7:47 PM PDT
Nautical Twilight 5:52 AM PDT 8:23 PM PDT
Astronomical Twilight 5:15 AM PDT 9:00 PM PDT
Moon 1:00 AM PDT 10:27 AM PDT
Length of Visible Light 13h 18m
Length of Day
12h 17m
Waning Gibbous, 64% of the Moon is Illuminated
Mar 22
Waning Gibbous
Mar 23
Last Quarter
Mar 30
New
Apr 7
First Quarter
Apr 15
Full

Hourly Weather History & Observations

Time (PDT) Temp. Windchill Dew Point Humidity Pressure Visibility Wind Dir Wind Speed Gust Speed Precip Events Conditions
12:55 AM 36.0 °F 29.6 °F 19.0 °F 50% 30.30 in 10.0 mi West 8.1 mph - N/A   Clear
1:55 AM 35.1 °F - 19.0 °F 52% 30.31 in 10.0 mi Calm Calm - N/A   Scattered Clouds
2:55 AM 35.1 °F 30.1 °F 19.0 °F 52% 30.32 in 10.0 mi WNW 5.8 mph - N/A   Clear
3:55 AM 33.1 °F 30.0 °F 19.0 °F 56% 30.32 in 10.0 mi NW 3.5 mph - N/A   Clear
4:55 AM 32.0 °F 28.7 °F 19.9 °F 61% 30.32 in 10.0 mi WNW 3.5 mph - N/A   Clear
5:55 AM 30.9 °F 24.3 °F 19.9 °F 64% 30.34 in 10.0 mi WNW 6.9 mph - N/A   Clear
6:55 AM 32.0 °F 23.0 °F 19.9 °F 61% 30.34 in 10.0 mi WNW 11.5 mph - N/A   Clear
7:55 AM 32.0 °F 28.7 °F 19.0 °F 59% 30.35 in 10.0 mi NNW 3.5 mph - N/A   Clear
8:55 AM 36.0 °F 29.6 °F 19.9 °F 52% 30.34 in 10.0 mi WNW 8.1 mph - N/A   Clear
9:55 AM 37.9 °F 35.5 °F 21.0 °F 51% 30.34 in 10.0 mi WSW 3.5 mph - N/A   Clear
10:55 AM 42.1 °F - 19.9 °F 41% 30.33 in 10.0 mi North - - N/A   Clear
11:55 AM 46.0 °F 44.8 °F 19.9 °F 35% 30.30 in 10.0 mi ESE 3.5 mph - N/A   Clear
12:55 PM 48.9 °F - 19.0 °F 31% 30.27 in 10.0 mi North - - N/A   Clear
1:55 PM 50.0 °F - 19.9 °F 31% 30.24 in 10.0 mi ENE 4.6 mph - N/A   Clear
2:55 PM 52.0 °F - 19.9 °F 28% 30.20 in 10.0 mi Variable 3.5 mph - N/A   Clear
3:55 PM 55.0 °F - 18.0 °F 23% 30.18 in 10.0 mi Calm Calm - N/A   Partly Cloudy
4:55 PM 55.0 °F - 17.1 °F 23% 30.16 in 10.0 mi Calm Calm - N/A   Clear
5:55 PM 55.0 °F - 17.1 °F 23% 30.14 in 10.0 mi Calm Calm - N/A   Clear
6:55 PM 53.1 °F - 19.0 °F 26% 30.13 in 10.0 mi WNW 5.8 mph - N/A   Clear
7:55 PM 48.0 °F - 19.9 °F 33% 30.14 in 10.0 mi North 4.6 mph - N/A   Clear
8:55 PM 46.9 °F - 24.1 °F 41% 30.15 in 10.0 mi NNW 9.2 mph - N/A   Clear
9:55 PM 46.0 °F 41.4 °F 26.1 °F 46% 30.16 in 10.0 mi NNW 9.2 mph - N/A   Clear
10:55 PM 45.0 °F 40.1 °F 27.0 °F 49% 30.16 in 10.0 mi NNW 9.2 mph - N/A   Clear
11:55 PM 42.1 °F 39.2 °F 27.0 °F 55% 30.16 in 10.0 mi NW 4.6 mph - N/A   Mostly Cloudy